Weather History for KOTH - November, 2011

Change the Weather History Date:

Sunday, November 27, 2011

  Actual Average Record
Temperature  
Mean Temperature 50 °F 47 °F  
Max Temperature 57 °F 53 °F 72 °F (2002)
Min Temperature 43 °F 41 °F 22 °F (1919)
Degree Days  
Heating Degree Days 15 18  
Month to date heating degree days 449 431  
Since 1 July heating degree days 1295 1397  
Cooling Degree Days 0 0  
Month to date cooling degree days 0 0  
Year to date cooling degree days 1 2  
Moisture  
Dew Point 41 °F    
Average Humidity 78    
Maximum Humidity 82    
Minimum Humidity 71    
Precipitation  
Precipitation 0.34 in 0.38 in 3.59 in (1945)
Month to date precipitation 5.42 9.05  
Year to date precipitation 36.33 52.60  
Sea Level Pressure  
Sea Level Pressure 30.29 in    
Wind  
Wind Speed 7 mph (SSE)    
Max Wind Speed 18 mph    
Max Gust Speed 23 mph    
Visibility 8 miles    
Events      
T = Trace of Precipitation, MM = Missing Value Source: NWS Daily Summary

Daily Weather History Graph

Daily Weather History Graph

Search for Another Location

Airport or City:

Trip Planner

Search our weather history database for the weather conditions in past years. The results will help you decide how hot, cold, wet, or windy it might be!

Date:

Astronomy

Nov. 27, 2011 Rise Set
Actual Time 7:25 AM PST 4:43 PM PST
Civil Twilight 6:53 AM PST 5:15 PM PST
Nautical Twilight 6:18 AM PST 5:50 PM PST
Astronomical Twilight 5:43 AM PST 6:25 PM PST
Moon 9:55 AM PST (11/27) 7:28 PM PST (11/27)
Length of Visible Light 10h 22m
Length of Day
9h 18m
Waxing Crescent, 9% of the Moon is Illuminated
Nov 27
Waxing Crescent
Dec 2
First Quarter
Dec 10
Full
Dec 17
Last Quarter
Dec 24
New

Hourly Weather History & Observations

Time (PST) Temp. Windchill Dew Point Humidity Pressure Visibility Wind Dir Wind Speed Gust Speed Precip Events Conditions
12:15 AM 42.8 °F 38.6 °F 37.4 °F 81% 30.26 in 1.0 mi SSE 6.9 mph - N/A   Overcast
12:35 AM 42.8 °F 38.6 °F 37.4 °F 81% 30.25 in 0.8 mi ESE 6.9 mph - N/A   Overcast
12:55 AM 44.6 °F 40.7 °F 37.4 °F 76% 30.25 in 1.2 mi SE 6.9 mph - N/A   Overcast
1:15 AM 42.8 °F 38.0 °F 37.4 °F 81% 30.24 in 8.0 mi SSE 8.1 mph - N/A   Overcast
1:35 AM 42.8 °F 38.0 °F 37.4 °F 81% 30.24 in 10.0 mi SSE 8.1 mph - N/A   Partly Cloudy
1:55 AM 42.8 °F 38.6 °F 37.4 °F 81% 30.24 in 10.0 mi SSE 6.9 mph - N/A   Clear
2:15 AM 44.6 °F 40.2 °F 37.4 °F 76% 30.26 in 10.0 mi South 8.1 mph - N/A   Clear
2:35 AM 44.6 °F 39.2 °F 37.4 °F 76% 30.25 in 10.0 mi SE 10.4 mph - N/A   Clear
2:55 AM 44.6 °F 40.2 °F 37.4 °F 76% 30.25 in 5.0 mi SE 8.1 mph - N/A   Scattered Clouds
3:15 AM 44.6 °F 40.2 °F 37.4 °F 76% 30.25 in 2.0 mi SSE 8.1 mph - N/A   Mostly Cloudy
3:35 AM 42.8 °F 39.3 °F 37.4 °F 81% 30.24 in 9.0 mi SE 5.8 mph - N/A   Partly Cloudy
3:55 AM 44.6 °F 38.4 °F 37.4 °F 76% 30.23 in 10.0 mi ESE 12.7 mph - N/A   Clear
4:15 AM 44.6 °F 39.2 °F 37.4 °F 76% 30.23 in 10.0 mi South 10.4 mph - N/A   Clear
4:35 AM 44.6 °F 39.2 °F 37.4 °F 76% 30.21 in 10.0 mi SSE 10.4 mph - N/A   Clear
4:55 AM 44.6 °F 38.8 °F 37.4 °F 76% 30.20 in 10.0 mi SSE 11.5 mph - N/A   Clear
5:15 AM 42.8 °F 37.5 °F 37.4 °F 81% 30.22 in 10.0 mi South 9.2 mph - N/A   Clear
5:35 AM 44.6 °F 40.2 °F 37.4 °F 76% 30.22 in 10.0 mi South 8.1 mph - N/A   Clear
5:55 AM 42.8 °F 38.6 °F 37.4 °F 81% 30.23 in 10.0 mi SSE 6.9 mph - N/A   Clear
6:15 AM 42.8 °F 40.1 °F 37.4 °F 81% 30.23 in 10.0 mi SSE 4.6 mph - N/A   Scattered Clouds
6:35 AM 42.8 °F 37.5 °F 37.4 °F 81% 30.23 in 10.0 mi SE 9.2 mph - N/A   Mostly Cloudy
6:55 AM 42.8 °F 36.6 °F 37.4 °F 81% 30.23 in 10.0 mi SSE 11.5 mph - N/A   Partly Cloudy
7:15 AM 42.8 °F 38.0 °F 37.4 °F 81% 30.23 in 10.0 mi South 8.1 mph - N/A   Partly Cloudy
7:35 AM 42.8 °F 36.6 °F 37.4 °F 81% 30.23 in 10.0 mi South 11.5 mph - N/A   Scattered Clouds
7:55 AM 44.6 °F 39.7 °F 37.4 °F 76% 30.23 in 10.0 mi South 9.2 mph - N/A   Mostly Cloudy
8:15 AM 46.4 °F 45.2 °F 39.2 °F 76% 30.25 in 10.0 mi South 3.5 mph - N/A   Mostly Cloudy
8:35 AM 46.4 °F 45.2 °F 39.2 °F 76% 30.25 in 10.0 mi SE 3.5 mph - N/A   Overcast
8:55 AM 46.4 °F 42.9 °F 39.2 °F 76% 30.26 in 8.0 mi ESE 6.9 mph - N/A   Overcast
9:15 AM 46.4 °F 41.5 °F 39.2 °F 76% 30.26 in 10.0 mi SE 10.4 mph - N/A   Overcast
9:55 AM 46.4 °F 41.5 °F 39.2 °F 76% 30.26 in 10.0 mi SSE 10.4 mph - N/A   Overcast
10:15 AM 48.2 °F - 42.8 °F 82% 30.27 in 10.0 mi South 6.9 mph - N/A   Overcast
10:35 AM 50.0 °F - 42.8 °F 76% 30.27 in 10.0 mi SSE 6.9 mph - N/A   Overcast
10:55 AM 51.8 °F - 42.8 °F 71% 30.26 in 10.0 mi SE 10.4 mph - N/A   Overcast
11:15 AM 51.8 °F - 44.6 °F 76% 30.26 in 10.0 mi SSE 10.4 mph - N/A   Overcast
11:35 AM 53.6 °F - 44.6 °F 72% 30.25 in 10.0 mi SE 9.2 mph - N/A   Overcast
11:55 AM 53.6 °F - 44.6 °F 72% 30.26 in 10.0 mi SE 4.6 mph - N/A   Overcast
12:15 PM 55.4 °F - 46.4 °F 72% 30.26 in 10.0 mi South 6.9 mph - N/A   Overcast
12:35 PM 57.2 °F - 46.4 °F 67% 30.26 in 10.0 mi SSW 9.2 mph - N/A   Overcast
12:55 PM 57.2 °F - 48.2 °F 72% 30.26 in 10.0 mi SSW 4.6 mph - N/A   Overcast
1:15 PM 57.2 °F - 48.2 °F 72% 30.27 in 10.0 mi WSW 6.9 mph - N/A   Overcast
1:35 PM 55.4 °F - 46.4 °F 72% 30.28 in 4.0 mi WSW 11.5 mph 17.3 mph N/A   Overcast
1:55 PM 53.6 °F - 46.4 °F 77% 30.28 in 1.8 mi WSW 8.1 mph - 0.02 in   Overcast
2:15 PM 53.6 °F - 46.4 °F 77% 30.30 in 2.0 mi West 8.1 mph - 0.03 in   Overcast
2:35 PM 51.8 °F - 44.6 °F 76% 30.30 in 1.8 mi West 19.6 mph 25.3 mph 0.08 in   Overcast
2:55 PM 48.2 °F - 42.8 °F 82% 30.32 in 2.0 mi North 18.4 mph 23.0 mph 0.10 in   Overcast
3:15 PM 48.2 °F - 41.0 °F 76% 30.33 in 2.5 mi North 12.7 mph - 0.01 in   Overcast
3:35 PM 48.2 °F - 42.8 °F 82% 30.34 in 3.0 mi North 10.4 mph - 0.01 in   Overcast
3:55 PM 48.2 °F - 42.8 °F 82% 30.35 in 3.0 mi North 9.2 mph - 0.02 in   Overcast
4:15 PM 48.2 °F - 42.8 °F 82% 30.35 in 2.5 mi North 10.4 mph - 0.01 in   Overcast
4:35 PM 48.2 °F - 41.0 °F 76% 30.36 in 3.0 mi NNW 8.1 mph - 0.02 in   Overcast
4:55 PM 48.2 °F - 42.8 °F 82% 30.36 in 10.0 mi NNE 9.2 mph - 0.04 in   Overcast
5:15 PM 46.4 °F 42.9 °F 41.0 °F 81% 30.36 in 10.0 mi NNE 6.9 mph - N/A   Overcast
5:35 PM 46.4 °F 44.3 °F 41.0 °F 81% 30.37 in 10.0 mi North 4.6 mph - 0.01 in   Overcast
5:55 PM 46.4 °F - 41.0 °F 81% 30.38 in 10.0 mi Calm Calm - 0.03 in   Overcast
6:15 PM 46.4 °F - 41.0 °F 81% 30.38 in 10.0 mi Calm Calm - 0.02 in   Overcast
6:35 PM 46.4 °F - 39.2 °F 76% 30.38 in 10.0 mi Calm Calm - 0.05 in   Overcast
6:55 PM 46.4 °F - 41.0 °F 81% 30.38 in 9.0 mi Calm Calm - 0.06 in   Overcast
7:15 PM 46.4 °F 45.2 °F 41.0 °F 81% 30.39 in 9.0 mi SSE 3.5 mph - 0.01 in   Overcast
7:35 PM 46.4 °F 45.2 °F 41.0 °F 81% 30.39 in 7.0 mi SSE 3.5 mph - 0.02 in   Overcast
7:55 PM 46.4 °F 45.2 °F 41.0 °F 81% 30.39 in 8.0 mi SSE 3.5 mph - 0.02 in   Overcast
8:15 PM 46.4 °F 44.3 °F 41.0 °F 81% 30.39 in 10.0 mi ESE 4.6 mph - N/A   Overcast
8:35 PM 46.4 °F 45.2 °F 41.0 °F 81% 30.39 in 9.0 mi SSE 3.5 mph - 0.01 in   Overcast
8:55 PM 46.4 °F 45.2 °F 41.0 °F 81% 30.39 in 7.0 mi SE 3.5 mph - 0.02 in   Overcast
9:15 PM 46.4 °F 43.5 °F 41.0 °F 81% 30.39 in 7.0 mi SE 5.8 mph - 0.02 in   Overcast
9:35 PM 46.4 °F 45.2 °F 41.0 °F 81% 30.40 in 9.0 mi SSE 3.5 mph - 0.03 in   Overcast
9:55 PM 46.4 °F 44.3 °F 41.0 °F 81% 30.40 in 10.0 mi East 4.6 mph - 0.03 in   Overcast
10:15 PM 46.4 °F 44.3 °F 41.0 °F 81% 30.39 in 10.0 mi SE 4.6 mph - N/A   Overcast
10:35 PM 46.4 °F - 41.0 °F 81% 30.40 in 10.0 mi Calm Calm - N/A   Overcast
10:55 PM 46.4 °F - 41.0 °F 81% 30.42 in 10.0 mi Calm Calm - N/A   Overcast
11:15 PM 46.4 °F 43.5 °F 41.0 °F 81% 30.42 in 6.0 mi NW 5.8 mph - N/A   Overcast
11:35 PM 46.4 °F 44.3 °F 41.0 °F 81% 30.42 in 7.0 mi North 4.6 mph - N/A   Overcast
11:55 PM 46.4 °F 43.5 °F 41.0 °F 81% 30.42 in 7.0 mi NNE 5.8 mph - N/A   Overcast